This is the latest recevied weather packets stored in our database for station/object N7CEE. If no packets are shown the sender has not sent any weather packets the latest 10 day(s).
| Time | Temp. | Humidity | Pressure | Rain* | Wind** | Luminosity | Snow |
|---|---|---|---|---|---|---|---|
| 1777745864 | 16.67° C | 26% | 1027.7 hPa | 0 mm | - | 814 W/m² | - |
| 1777745563 | 16.67° C | 25% | 1027.8 hPa | 0 mm | - | 808 W/m² | - |
| 1777745260 | 17.22° C | 24% | 1027.9 hPa | 0 mm | - | 797 W/m² | - |
| 1777744958 | 17.78° C | 24% | 1027.7 hPa | 0 mm | - | 789 W/m² | - |
| 1777744657 | 17.78° C | 24% | 1027.9 hPa | 0 mm | - | 782 W/m² | - |
| 1777744352 | 16.67° C | 25% | 1027.7 hPa | 0 mm | - | 773 W/m² | - |
| 1777744049 | 16.11° C | 26% | 1027.9 hPa | 0 mm | - | 762 W/m² | - |
| 1777743747 | 16.67° C | 25% | 1028.2 hPa | 0 mm | - | 753 W/m² | - |
| 1777743444 | 17.22° C | 25% | 1027.9 hPa | 0 mm | - | 756 W/m² | - |
| 1777743135 | 16.67° C | 24% | 1028.1 hPa | 0 mm | - | 746 W/m² | - |
| 1777742834 | 16.67° C | 26% | 1028.2 hPa | 0 mm | - | 735 W/m² | - |
| 1777742529 | 16.67° C | 26% | 1027.9 hPa | 0 mm | - | 689 W/m² | - |
| 1777742225 | 15.56° C | 27% | 1027.9 hPa | 0 mm | - | 724 W/m² | - |
| 1777741922 | 16.11° C | 26% | 1027.8 hPa | 0 mm | - | 705 W/m² | - |
| 1777741619 | 15.56° C | 28% | 1027.8 hPa | 0 mm | - | 691 W/m² | - |
| 1777741316 | 16.11° C | 27% | 1027.9 hPa | 0 mm | - | 679 W/m² | - |
| 1777741012 | 15.56° C | 26% | 1027.9 hPa | 0 mm | - | 669 W/m² | - |
| 1777740709 | 15.56° C | 26% | 1027.9 hPa | 0 mm | - | 652 W/m² | - |
| 1777740405 | 15.56° C | 27% | 1027.7 hPa | 0 mm | - | 642 W/m² | - |
| 1777740102 | 15.56° C | 26% | 1027.8 hPa | 0 mm | - | 629 W/m² | - |
| 1777739798 | 14.44° C | 26% | 1027.8 hPa | 0 mm | - | 615 W/m² | - |
| 1777739495 | 14.44° C | 26% | 1027.8 hPa | 0 mm | - | 597 W/m² | - |
| 1777739192 | 14.44° C | 26% | 1027.8 hPa | 0 mm | - | 582 W/m² | - |
| 1777738889 | 13.89° C | 26% | 1027.7 hPa | 0 mm | - | 452 W/m² | - |
| 1777738586 | 13.33° C | 27% | 1027.8 hPa | 0 mm | - | 531 W/m² | - |
* Rain latest hour (hover to see other rain measurements)
** Current wind speed in m/s (hover to see current wind gust speed)